GW7358 Weather Reports


Display with metric or nautical units.
time (UTC)temp
F
wind
direction
speed
MPH
gust
MPH
rain 1hr
in
rain 24hr
in
rain mn
in
humidity
%
barometer
mb
20260507010937 57 175 0.0 2.0 0.00 0.00 0.00 70 1017.6
20260507010433 57 162 0.0 2.0 0.00 0.00 0.00 71 1017.6
20260507005930 57 174 0.0 2.0 0.00 0.00 0.00 70 1017.6
20260507005427 57 193 0.0 2.0 0.00 0.00 0.00 70 1017.9
20260507004923 57 191 1.0 3.0 0.00 0.00 0.00 69 1018.0
20260507004420 58 136 0.0 2.0 0.00 0.00 0.00 68 1018.0
20260507003918 58 172 0.0 1.0 0.00 0.00 0.00 67 1018.0
20260507003412 58 206 2.0 3.0 0.00 0.00 0.00 64 1017.9
20260507002908 59 206 2.0 2.0 0.00 0.00 0.00 64 1017.8
20260507002404 58 193 2.0 2.0 0.00 0.00 0.00 63 1017.6
20260507001902 59 202 2.0 2.0 0.00 0.00 0.00 65 1017.6
20260507001358 59 153 0.0 2.0 0.00 0.00 0.00 64 1017.8
20260507000856 59 116 0.0 2.0 0.00 0.00 0.00 61 1017.8
20260507000350 60 155 0.0 2.0 0.00 0.00 0.00 62 1017.7
20260506235847 60 194 0.0 3.0 0.00 0.00 0.00 63 1017.8
20260506235344 59 133 0.0 2.0 0.00 0.00 0.00 66 1018.1
20260506234840 59 186 2.0 3.0 0.00 0.00 0.00 67 1018.3
20260506234338 59 183 1.0 2.0 0.00 0.00 0.00 67 1018.6
20260506233836 58 180 1.0 2.0 0.00 0.00 0.00 67 1018.9
20260506233331 58 217 0.0 2.0 0.00 0.00 0.00 67 1019.0
20260506232828 58 173 1.0 2.0 0.00 0.00 0.00 67 1018.9
20260506232324 58 174 1.0 2.0 0.00 0.00 0.00 67 1019.0
20260506231821 58 189 1.0 2.0 0.00 0.00 0.00 67 1018.9
20260506231319 59 182 0.0 2.0 0.00 0.00 0.00 67 1018.9
20260506230816 59 184 2.0 2.0 0.00 0.00 0.00 65 1019.0
20260506230312 59 209 0.0 3.0 0.00 0.00 0.00 65 1019.0
20260506225808 60 152 0.0 2.0 0.00 0.00 0.00 66 1018.8
20260506225306 60 189 2.0 2.0 0.00 0.00 0.00 64 1018.8
20260506224803 60 201 2.0 3.0 0.00 0.00 0.00 65 1018.9
20260506224300 60 10 0.0 3.0 0.00 0.00 0.00 66 1019.1
20260506223756 60 5 0.0 2.0 0.00 0.00 0.00 65 1018.9
20260506223251 60 86 1.0 3.0 0.00 0.00 0.00 67 1019.2
20260506222748 59 192 1.0 2.0 0.00 0.00 0.00 69 1019.2
20260506222244 60 277 0.0 2.0 0.00 0.00 0.00 71 1019.4
20260506221742 60 28 0.0 2.0 0.00 0.00 0.00 71 1019.3
20260506221240 60 31 0.0 2.0 0.00 0.00 0.00 71 1019.1
20260506220737 60 168 0.0 2.0 0.00 0.00 0.00 71 1019.2
20260506220232 60 175 0.0 2.0 0.00 0.00 0.00 71 1019.3
20260506215729 60 217 0.0 2.0 0.00 0.00 0.00 71 1019.1
20260506215224 60 66 0.0 3.0 0.00 0.00 0.00 70 1018.9
20260506214721 60 165 1.0 2.0 0.00 0.00 0.00 70 1019.0
20260506214218 60 180 1.0 2.0 0.00 0.00 0.00 70 1019.1
20260506213716 60 171 0.0 2.0 0.00 0.00 0.00 69 1019.0
20260506213213 60 206 0.0 2.0 0.00 0.00 0.00 68 1018.9
20260506212711 60 152 2.0 3.0 0.00 0.00 0.00 68 1018.9
20260506212206 59 147 2.0 2.0 0.00 0.00 0.00 71 1018.7
20260506211702 59 238 0.0 2.0 0.00 0.00 0.00 71 1018.7
20260506211158 59 158 0.0 2.0 0.00 0.00 0.00 70 1019.0
20260506210655 59 193 0.0 2.0 0.00 0.00 0.00 69 1019.0
20260506210152 59 182 1.0 2.0 0.00 0.00 0.00 69 1018.8
20260506205650 60 163 0.0 2.0 0.00 0.00 0.00 68 1018.6
20260506205149 60 140 0.0 2.0 0.00 0.00 0.00 67 1018.5
20260506204648 61 48 0.0 0.0 0.00 0.00 0.00 65 1018.2
20260506204144 61 95 1.0 2.0 0.00 0.00 0.00 65 1018.3
20260506203643 61 22 0.0 1.0 0.00 0.00 0.00 65 1018.3
20260506203139 61 176 0.0 2.0 0.00 0.00 0.00 65 1018.4
20260506202637 61 218 0.0 2.0 0.00 0.00 0.00 66 1018.3
20260506202133 61 197 0.0 2.0 0.00 0.00 0.00 66 1018.3
20260506201630 61 177 1.0 2.0 0.00 0.00 0.00 66 1018.5
20260506201127 62 208 2.0 2.0 0.00 0.00 0.00 66 1018.5
20260506200623 62 181 1.0 2.0 0.00 0.00 0.00 66 1018.7
20260506200120 61 177 1.0 2.0 0.00 0.00 0.00 67 1018.8
20260506195617 61 87 1.0 2.0 0.00 0.00 0.00 67 1018.8
20260506195113 61 194 2.0 2.0 0.00 0.00 0.00 68 1018.8
20260506194611 61 100 0.0 3.0 0.00 0.00 0.00 68 1018.9
20260506194107 62 155 2.0 3.0 0.00 0.00 0.00 68 1018.9
20260506193605 62 85 0.0 2.0 0.00 0.00 0.00 67 1019.0
20260506193102 62 31 0.0 2.0 0.00 0.00 0.00 67 1018.9
20260506192559 62 181 0.0 0.0 0.00 0.00 0.00 67 1019.1
20260506192054 62 161 0.0 2.0 0.00 0.00 0.00 67 1018.8
20260506191551 62 197 1.0 2.0 0.00 0.00 0.00 69 1018.9
20260506191047 62 226 0.0 1.0 0.00 0.00 0.00 69 1018.8
20260506190545 62 210 0.0 1.0 0.00 0.00 0.00 69 1018.7
20260506190042 62 209 1.0 2.0 0.00 0.00 0.00 69 1018.9
20260506185539 63 54 0.0 2.0 0.00 0.00 0.00 70 1018.7
20260506185035 63 184 1.0 2.0 0.00 0.00 0.00 70 1018.7
20260506184532 63 191 1.0 2.0 0.00 0.00 0.00 71 1018.6
20260506184030 63 220 0.0 2.0 0.00 0.00 0.00 71 1018.7
20260506183525 63 191 2.0 2.0 0.00 0.00 0.00 71 1018.6
20260506183023 63 187 0.0 2.0 0.00 0.00 0.00 71 1018.6
20260506182520 63 161 1.0 2.0 0.00 0.00 0.00 71 1018.6
20260506182017 63 185 0.0 2.0 0.00 0.00 0.00 71 1018.5
20260506181515 64 176 1.0 2.0 0.00 0.00 0.00 71 1018.5
20260506181011 64 20 1.0 2.0 0.00 0.00 0.00 70 1018.5
20260506180508 65 192 0.0 0.0 0.00 0.00 0.00 70 1018.4
20260506180005 65 191 2.0 2.0 0.00 0.00 0.00 71 1018.3
20260506175501 65 196 2.0 2.0 0.00 0.00 0.00 70 1018.5
20260506174957 66 197 2.0 3.0 0.00 0.00 0.00 69 1018.1
20260506174456 66 200 2.0 2.0 0.00 0.00 0.00 69 1018.1
20260506173952 66 193 2.0 2.0 0.00 0.00 0.00 70 1018.3
20260506173450 66 203 0.0 2.0 0.00 0.00 0.00 70 1018.2
20260506172946 67 177 2.0 2.0 0.00 0.00 0.00 70 1018.1
20260506172444 67 196 1.0 2.0 0.00 0.00 0.00 70 1018.0
20260506171940 67 183 1.0 2.0 0.00 0.00 0.00 70 1018.1
20260506171437 68 181 2.0 3.0 0.00 0.00 0.00 70 1017.8
20260506170935 68 166 0.0 3.0 0.00 0.00 0.00 69 1017.9
20260506170431 69 198 1.0 3.0 0.00 0.00 0.00 68 1017.8
20260506165930 69 189 1.0 3.0 0.00 0.00 0.00 66 1017.9
20260506165428 69 189 1.0 2.0 0.00 0.00 0.00 66 1017.8
20260506164924 70 228 2.0 2.0 0.00 0.00 0.00 65 1017.6
20260506164421 70 208 3.0 4.0 0.00 0.00 0.00 66 1017.7
20260506163919 71 190 2.0 4.0 0.00 0.00 0.00 61 1017.7
20260506163413 71 225 1.0 2.0 0.00 0.00 0.00 60 1017.7
20260506162908 71 213 2.0 3.0 0.00 0.00 0.00 65 1017.5
20260506162407 71 195 2.0 5.0 0.00 0.00 0.00 65 1017.7
20260506161904 71 205 5.0 6.0 0.00 0.00 0.00 64 1017.5
20260506161402 71 218 2.0 4.0 0.00 0.00 0.00 64 1017.4
20260506160859 71 196 3.0 6.0 0.00 0.00 0.00 64 1017.6
20260506160356 71 214 3.0 4.0 0.00 0.00 0.00 62 1017.5
20260506155854 72 189 4.0 4.0 0.00 0.00 0.00 59 1017.4
20260506155350 73 188 4.0 4.0 0.00 0.00 0.00 59 1017.4
20260506153502 72 228 2.0 4.0 0.00 0.00 0.00 58 1017.4
20260506152959 72 213 2.0 4.0 0.00 0.00 0.00 53 1017.5
20260506152456 72 224 3.0 4.0 0.00 0.00 0.00 60 1017.6
20260506151954 72 220 5.0 7.0 0.00 0.00 0.00 59 1017.3
20260506151452 72 205 3.0 5.0 0.00 0.00 0.00 57 1017.3
20260506150949 73 200 4.0 7.0 0.00 0.00 0.00 56 1017.4
20260506150444 74 199 4.0 8.0 0.00 0.00 0.00 58 1017.6
20260506145942 74 198 1.0 5.0 0.00 0.00 0.00 51 1017.6
20260506145438 74 212 4.0 6.0 0.00 0.00 0.00 50 1017.6
20260506144936 74 188 2.0 7.0 0.00 0.00 0.00 49 1017.7
20260506144432 73 207 4.0 5.0 0.00 0.00 0.00 50 1017.7
20260506143931 73 196 5.0 7.0 0.00 0.00 0.00 49 1017.9
20260506143427 73 169 4.0 7.0 0.00 0.00 0.00 54 1017.6
20260506142926 73 230 4.0 7.0 0.00 0.00 0.00 55 1017.6
20260506142423 73 198 7.0 10.0 0.00 0.00 0.00 52 1017.8
20260506141921 72 199 4.0 9.0 0.00 0.00 0.00 58 1017.6
20260506141419 73 214 9.0 9.0 0.00 0.00 0.00 60 1017.6
20260506140917 73 197 8.0 10.0 0.00 0.00 0.00 56 1017.9
20260506140414 73 206 7.0 7.0 0.00 0.00 0.00 56 1018.0
20260506135911 72 210 5.0 9.0 0.00 0.00 0.00 58 1017.9
20260506135408 72 194 4.0 11.0 0.00 0.00 0.00 63 1018.0
20260506134903 73 195 9.0 13.0 0.00 0.00 0.00 65 1018.1
20260506134400 75 212 8.0 11.0 0.00 0.00 0.00 61 1018.2
20260506133857 77 212 4.0 7.0 0.00 0.00 0.00 46 1018.0
20260506133353 77 188 4.0 6.0 0.00 0.00 0.00 30 1018.1
20260506132850 76 198 5.0 5.0 0.00 0.00 0.00 39 1018.2
20260506132347 75 208 6.0 7.0 0.00 0.00 0.00 44 1018.2
20260506131846 75 193 4.0 5.0 0.00 0.00 0.00 46 1018.1
20260506131342 74 218 5.0 5.0 0.00 0.00 0.00 61 1018.3
20260506130839 74 215 4.0 7.0 0.00 0.00 0.00 62 1018.4
20260506130335 74 217 5.0 6.0 0.00 0.00 0.00 60 1018.3
20260506125833 73 217 5.0 7.0 0.00 0.00 0.00 60 1018.5
20260506125331 73 219 5.0 7.0 0.00 0.00 0.00 62 1018.4
20260506124830 74 190 4.0 6.0 0.00 0.00 0.00 62 1018.6
20260506124326 73 218 6.0 8.0 0.00 0.00 0.00 64 1018.6
20260506123824 73 211 6.0 9.0 0.00 0.00 0.00 65 1018.6
20260506123322 73 220 7.0 9.0 0.00 0.00 0.00 65 1018.6
20260506122819 72 189 7.0 9.0 0.00 0.00 0.00 63 1018.6
20260506122316 73 192 6.0 11.0 0.00 0.00 0.00 61 1018.8
20260506121814 73 197 6.0 10.0 0.00 0.00 0.00 61 1018.7
20260506121311 73 211 5.0 11.0 0.00 0.00 0.00 60 1018.9
20260506120808 74 203 5.0 10.0 0.00 0.00 0.00 58 1018.8
20260506120306 73 216 7.0 7.0 0.00 0.00 0.00 61 1018.9
20260506115803 73 208 7.0 8.0 0.00 0.00 0.00 60 1019.0
20260506115301 73 206 5.0 9.0 0.00 0.00 0.00 60 1018.9
20260506114759 72 216 3.0 7.0 0.00 0.00 0.00 60 1019.0
20260506114256 72 220 7.0 8.0 0.00 0.00 0.00 60 1019.1
20260506113754 73 219 6.0 8.0 0.00 0.00 0.00 56 1019.3
20260506113252 72 228 4.0 8.0 0.00 0.00 0.00 50 1019.2
20260506112748 71 223 6.0 9.0 0.00 0.00 0.00 56 1019.3
20260506112245 71 234 3.0 9.0 0.00 0.00 0.00 60 1019.3
20260506111743 71 223 6.0 7.0 0.00 0.00 0.00 63 1019.4
20260506111241 71 229 5.0 7.0 0.00 0.00 0.00 61 1019.5
20260506110737 71 198 5.0 8.0 0.00 0.00 0.00 61 1019.4
20260506110235 71 234 4.0 7.0 0.00 0.00 0.00 64 1019.1
20260506105731 70 215 4.0 5.0 0.00 0.00 0.00 67 1019.2
20260506105229 71 224 6.0 8.0 0.00 0.00 0.00 67 1019.2
20260506104726 70 213 5.0 8.0 0.00 0.00 0.00 69 1019.2
20260506104224 71 218 8.0 10.0 0.00 0.00 0.00 69 1019.3
20260506103721 70 217 5.0 9.0 0.00 0.00 0.00 70 1019.1
20260506103217 70 218 6.0 8.0 0.00 0.00 0.00 69 1019.0
20260506102715 70 226 6.0 7.0 0.00 0.00 0.00 70 1019.0
20260506102214 70 218 4.0 7.0 0.00 0.00 0.00 69 1019.0
20260506101710 70 231 5.0 5.0 0.00 0.00 0.00 71 1019.1
20260506101207 70 252 2.0 6.0 0.00 0.00 0.00 71 1019.0
20260506100705 70 212 5.0 7.0 0.00 0.00 0.00 71 1019.1
20260506100202 70 231 5.0 9.0 0.00 0.00 0.00 69 1019.1
20260506095701 70 221 6.0 7.0 0.00 0.00 0.00 70 1019.3
20260506095157 70 204 3.0 6.0 0.00 0.00 0.00 69 1019.4
20260506094655 70 206 4.0 6.0 0.00 0.00 0.00 70 1019.4
20260506094152 70 225 4.0 5.0 0.00 0.00 0.00 69 1019.6
20260506093651 69 208 3.0 6.0 0.00 0.00 0.00 69 1019.5
20260506093148 70 213 5.0 6.0 0.00 0.00 0.00 68 1019.4
20260506092645 70 228 5.0 6.0 0.00 0.00 0.00 70 1019.5
20260506092142 69 229 4.0 7.0 0.00 0.00 0.00 71 1019.5
20260506091640 69 217 6.0 7.0 0.00 0.00 0.00 70 1019.5
20260506091137 70 232 5.0 8.0 0.00 0.00 0.00 69 1019.4
20260506090636 70 227 5.0 7.0 0.00 0.00 0.00 70 1019.2
20260506090131 69 204 7.0 9.0 0.00 0.00 0.00 69 1019.1
20260506085629 70 228 6.0 7.0 0.00 0.00 0.00 66 1019.1
20260506085125 69 228 4.0 6.0 0.00 0.00 0.00 67 1019.1
20260506084621 69 215 6.0 6.0 0.00 0.00 0.00 68 1018.9
20260506084118 69 214 4.0 6.0 0.00 0.00 0.00 68 1019.0
20260506083615 69 195 3.0 5.0 0.00 0.00 0.00 68 1019.0
20260506083113 69 217 3.0 5.0 0.00 0.00 0.00 69 1018.9
20260506082609 68 218 3.0 5.0 0.00 0.00 0.00 70 1018.7
20260506082105 68 260 4.0 4.0 0.00 0.00 0.00 70 1019.0
20260506081603 68 234 3.0 5.0 0.00 0.00 0.00 69 1018.8
20260506081100 68 246 4.0 4.0 0.00 0.00 0.00 70 1019.0
20260506080558 68 215 2.0 5.0 0.00 0.00 0.00 69 1018.7
20260506073038 68 250 3.0 4.0 0.00 0.00 0.00 68 1018.7
20260506072535 68 245 3.0 6.0 0.00 0.00 0.00 67 1018.7
20260506072033 68 207 4.0 6.0 0.00 0.00 0.00 68 1018.6
20260506071531 67 224 6.0 6.0 0.00 0.00 0.00 67 1018.7
20260506071028 67 216 4.0 6.0 0.00 0.00 0.00 66 1018.7
20260506070525 67 235 4.0 8.0 0.00 0.00 0.00 65 1018.7
20260506062502 66 229 2.0 4.0 0.00 0.00 0.00 64 1018.8
20260506061959 66 227 3.0 4.0 0.00 0.00 0.00 64 1018.9
20260506061455 66 209 4.0 5.0 0.00 0.00 0.00 61 1018.9
20260506060953 65 219 3.0 4.0 0.00 0.00 0.00 64 1018.8
20260506060451 65 223 4.0 5.0 0.00 0.00 0.00 67 1018.7
20260506050920 57 191 2.0 2.0 0.00 0.00 0.00 70 1018.2
20260506050418 57 199 1.0 2.0 0.00 0.00 0.00 69 1018.1
20260506044908 56 190 0.0 2.0 0.00 0.00 0.00 71 1017.9
20260506044406 55 216 0.0 2.0 0.00 0.00 0.00 72 1017.7
20260506043902 55 6 0.0 2.0 0.00 0.00 0.00 71 1017.7
20260506043400 55 195 2.0 2.0 0.00 0.00 0.00 72 1017.9
20260506042858 55 169 0.0 2.0 0.00 0.00 0.00 72 1017.7
20260506042357 55 182 1.0 2.0 0.00 0.00 0.00 72 1017.8
20260506041855 55 315 0.0 2.0 0.00 0.00 0.00 71 1017.8
20260506041354 55 190 0.0 2.0 0.00 0.00 0.00 70 1017.8
20260506040849 55 204 1.0 2.0 0.00 0.00 0.00 69 1017.8
20260506040346 55 192 2.0 2.0 0.00 0.00 0.00 69 1017.5
20260506035842 55 201 0.0 2.0 0.00 0.00 0.00 69 1017.5
20260506035340 55 184 0.0 2.0 0.00 0.00 0.00 68 1017.7
20260506034837 55 183 1.0 2.0 0.00 0.00 0.00 68 1017.6
20260506034334 55 205 2.0 2.0 0.00 0.00 0.00 68 1017.6
20260506033831 55 193 0.0 2.0 0.00 0.00 0.00 69 1017.6
20260506033328 55 213 0.0 2.0 0.00 0.00 0.00 71 1017.5
20260506032825 55 179 0.0 2.0 0.00 0.00 0.00 71 1017.7
20260506032322 54 51 0.0 3.0 0.00 0.00 0.00 71 1017.7
20260506031819 54 166 0.0 2.0 0.00 0.00 0.00 71 1017.6
20260506031316 54 174 0.0 3.0 0.00 0.00 0.00 71 1017.6
20260506030814 55 82 0.0 2.0 0.00 0.00 0.00 69 1017.8
20260506030311 55 190 2.0 3.0 0.00 0.00 0.00 68 1017.7
20260506025808 55 196 0.0 2.0 0.00 0.00 0.00 67 1017.7
20260506025305 55 161 1.0 2.0 0.00 0.00 0.00 67 1017.6
20260506024802 55 150 0.0 2.0 0.00 0.00 0.00 67 1017.7
20260506024258 55 177 0.0 2.0 0.00 0.00 0.00 67 1017.5
20260506023754 55 190 0.0 2.0 0.00 0.00 0.00 68 1017.6
20260506023252 55 168 1.0 2.0 0.00 0.00 0.00 68 1017.8
20260506022748 55 174 1.0 2.0 0.00 0.00 0.00 68 1017.9
20260506022246 55 180 0.0 2.0 0.00 0.00 0.00 68 1018.0
20260506021744 56 227 0.0 2.0 0.00 0.00 0.00 68 1018.0
20260506021240 56 214 0.0 2.0 0.00 0.00 0.00 68 1017.9
20260506020737 56 192 1.0 2.0 0.00 0.00 0.00 68 1018.1
20260506020235 56 200 1.0 2.0 0.00 0.00 0.00 67 1017.8
20260506015732 56 196 2.0 2.0 0.00 0.00 0.00 67 1018.0
20260506015230 56 203 2.0 2.0 0.00 0.00 0.00 67 1017.9
20260506014727 56 224 0.0 2.0 0.00 0.00 0.00 67 1017.7
20260506014223 56 205 2.0 2.0 0.00 0.00 0.00 67 1017.8
20260506013720 56 214 1.0 2.0 0.00 0.00 0.00 67 1018.1
20260506013217 56 206 0.0 2.0 0.00 0.00 0.00 66 1017.9
20260506012713 56 196 2.0 2.0 0.00 0.00 0.00 66 1017.8
20260506012211 57 170 0.0 2.0 0.00 0.00 0.00 64 1017.9
20260506011708 57 189 0.0 3.0 0.00 0.00 0.00 63 1017.8
20260506011204 57 190 2.0 3.0 0.00 0.00 0.00 63 1017.9